Regional Weather Roundup
Issued by NWS

Home | Current Version | Previous Version | Graphics & Text | Print | Product List | Glossary On
Versions: 1 2 3 4 5 6 7 8 9 10 11 12 13 14 15 16 17 18 19 20 21 22 23 24 25 26 27 28 29 30 31 32 33 34 35 36 37 38 39 40 41 42 43 44 45 46 47 48 49 50
000
ASUS43 KLSX 210907
RWRMO

WEATHER SUMMARY FOR MISSOURI
NATIONAL WEATHER SERVICE SPRINGFIELD MO
400 AM CDT MON APR 21 2014

NOTE: "FAIR" INDICATES FEW OR NO CLOUDS BELOW 12,000 FEET WITH NO
       SIGNIFICANT WEATHER AND/OR OBSTRUCTIONS TO VISIBILITY.
       CURRENT SKY AND/OR WEATHER CONDITIONS ARE NOT AVAILABLE FOR
       CHILLICOTHE AND FARMINGTON.

MOZ001>031-035>038-043-044-053-054-211000-
...NORTHERN AND WESTERN MISSOURI...

CITY           SKY/WX    TMP DP  RH WIND       PRES   REMARKS
KANSAS CTY INT DRIZZLE   62  55  77 S6        29.98F
KANSAS C DTWN  CLOUDY    67  54  63 SW6       29.98S
LEE`S SUMMIT   CLOUDY    65  54  67 SW8       29.99F
ST JOSEPH      CLOUDY    62  57  83 S6        29.97F
CHILLICOTHE      N/A     62  56  80 S3        29.99S
KIRKSVILLE     CLOUDY    62  52  69 SW3       29.99F

$$
MOZ066>068-077>081-088>096-101>105-211000-
...SOUTHWEST MISSOURI...

CITY           SKY/WX    TMP DP  RH WIND       PRES   REMARKS
SPRINGFIELD    LGT RAIN  63  54  72 SW9       30.04R
JOPLIN         LGT RAIN  61  59  93 CALM      30.04S FOG

$$
MOZ032>034-039>042-045>050-055>058-069>072-211000-
...CENTRAL MISSOURI...

CITY           SKY/WX    TMP DP  RH WIND       PRES   REMARKS
COLUMBIA       CLOUDY    61  51  70 S6        30.01S
JEFFERSON CITY CLOUDY    59  52  77 SE3       30.01S
ROLLA          MOCLDY    61  48  62 S10       30.02R
SEDALIA        CLOUDY    62  53  72 S6        30.02R
WHITEMAN AFB   CLOUDY    58  52  79 S6        30.01R
OSAGE BEACH    CLOUDY    59  48  67 CALM      30.04S

$$
MOZ051-052-059>065-211000-
...EAST CENTRAL MISSOURI...

CITY           SKY/WX    TMP DP  RH WIND       PRES   REMARKS
ST LOUIS INTL  CLOUDY    63  45  51 NW5       30.03R
SPIRIT OF STL  CLOUDY    58  48  69 CALM      30.01R
ST CHARLES     CLOUDY    60  50  69 SE5       30.01S

$$
MOZ072>076-082>087-097>100-106>115-211000-
...SOUTH CENTRAL AND SOUTHEAST MISSOURI...

CITY           SKY/WX    TMP DP  RH WIND       PRES   REMARKS
CAPE GIRARDEAU MOCLDY    56  50  80 CALM      30.05S
FARMINGTON     MOCLDY    61  45  55 CALM      30.07S
POPLAR BLUFF   CLOUDY    59  52  77 CALM      30.04R
WEST PLAINS    CLOUDY    65  50  58 S7        30.07R

$$



USA.gov is the U.S. government's official web portal to all federal, state and local government web resources and services.